QPF
0.00 0.00 0.00 0.00 0.00 0.00 0.00 0.00 0.00 0.00 0.00 0.00 0.00 0.00 0.00 0.00 0.00 0.00 0.00 0.01 0.01 0.01 0.00 0.00 0.00 0.00 0.00 0.00 0.01 0.00 0.00 0.01 0.01 0.02 0.04 0.04 0.03 0.02 0.02 0.02 0.01 0.02 0.01 0.01
0.00 0.00 0.00 0.00 0.00 0.00 0.00 0.00 0.00 0.00 0.00 0.00 0.00 0.00 0.00 0.00 0.00 0.00 0.00 0.01 0.00 0.00 0.00 0.00 0.00 0.00 0.00 0.01 0.01 0.00 0.01 0.01 0.01 0.01 0.02 0.02 0.02 0.02 0.02 0.01 0.01 0.01 0.01 0.01
0.00 0.00 0.00 0.00 0.00 0.00 0.00 0.00 0.00 0.00 0.00 0.00 0.00 0.00 0.00 0.00 0.00 0.00 0.00 0.00 0.00 0.00 0.00 0.00 0.00 0.00 0.00 0.01 0.01 0.01 0.01 0.01 0.01 0.00 0.00 0.01 0.01 0.01 0.01 0.01 0.02 0.02 0.01 0.01
0.00 0.00 0.00 0.00 0.00 0.00 0.00 0.00 0.01 0.00 0.00 0.01 0.00 0.00 0.00 0.00 0.00 0.00 0.00 0.00 0.00 0.00 0.00 0.00 0.00 0.00 0.00 0.01 0.01 0.01 0.01 0.01 0.01 0.00 0.00 0.01 0.01 0.01 0.01 0.01 0.02 0.03 0.03 0.02
0.00 0.00 0.00 0.00 0.00 0.00 0.00 0.00 0.00 0.00 0.00 0.00 0.00 0.00 0.00 0.00 0.00 0.00 0.00 0.00 0.00 0.00 0.00 0.00 0.00 0.00 0.00 0.00 0.01 0.01 0.01 0.02 0.01 0.01 0.01 0.01 0.01 0.01 0.01 0.01 0.02 0.03 0.03 0.02
0.00 0.00 0.00 0.00 0.00 0.00 0.00 0.00 0.00 0.00 0.00 0.00 0.00 0.00 0.00 0.00 0.00 0.00 0.00 0.00 0.00 0.00 0.00 0.00 0.00 0.00 0.00 0.00 0.00 0.01 0.01 0.02 0.01 0.01 0.01 0.01 0.01 0.01 0.01 0.02 0.02 0.03 0.03 0.03
0.00 0.00 0.00 0.00 0.01 0.00 0.00 0.01 0.01 0.00 0.00 0.00 0.00 0.00 0.00 0.00 0.00 0.00 0.00 0.01 0.00 0.00 0.00 0.00 0.00 0.00 0.00 0.00 0.00 0.00 0.00 0.01 0.01 0.01 0.01 0.01 0.02 0.01 0.02 0.02 0.02 0.03 0.03 0.03
0.00 0.00 0.00 0.00 0.01 0.00 0.00 0.01 0.01 0.01 0.00 0.00 0.00 0.00 0.00 0.00 0.00 0.00 0.00 0.00 0.00 0.00 0.00 0.00 0.00 0.00 0.01 0.00 0.00 0.00 0.00 0.01 0.01 0.01 0.01 0.01 0.01 0.03 0.03 0.02 0.03 0.02 0.02 0.02
0.00 0.00 0.00 0.01 0.01 0.01 0.00 0.00 0.00 0.00 0.00 0.00 0.00 0.00 0.00 0.00 0.00 0.00 0.00 0.00 0.00 0.00 0.00 0.00 0.00 0.00 0.01 0.00 0.00 0.00 0.00 0.01 0.01 0.01 0.01 0.01 0.01 0.02 0.04 0.03 0.03 0.02 0.01 0.01
0.00 0.00 0.00 0.01 0.01 0.01 0.01 0.00 0.00 0.00 0.00 0.00 0.00 0.00 0.00 0.00 0.00 0.00 0.00 0.00 0.00 0.00 0.00 0.01 0.00 0.00 0.01 0.00 0.00 0.00 0.00 0.01 0.01 0.01 0.01 0.01 0.01 0.02 0.03 0.03 0.02 0.02 0.01 0.01
0.00 0.00 0.00 0.00 0.00 0.00 0.01 0.02 0.01 0.00 0.00 0.00 0.00 0.00 0.00 0.00 0.00 0.00 0.00 0.00 0.00 0.01 0.01 0.01 0.01 0.01 0.01 0.01 0.01 0.00 0.00 0.00 0.01 0.02 0.02 0.01 0.02 0.02 0.02 0.02 0.02 0.01 0.01 0.01
0.01 0.01 0.00 0.00 0.00 0.00 0.01 0.01 0.01 0.01 0.00 0.00 0.00 0.00 0.00 0.00 0.00 0.00 0.00 0.00 0.00 0.01 0.01 0.02 0.01 0.01 0.01 0.01 0.01 0.01 0.01 0.01 0.02 0.03 0.02 0.01 0.02 0.02 0.02 0.01 0.01 0.01 0.01 0.02
0.01 0.01 0.01 0.01 0.01 0.01 0.01 0.00 0.01 0.01 0.00 0.00 0.00 0.00 0.00 0.00 0.00 0.00 0.00 0.00 0.00 0.01 0.01 0.02 0.02 0.02 0.01 0.01 0.01 0.01 0.01 0.01 0.01 0.02 0.02 0.01 0.01 0.02 0.02 0.01 0.01 0.01 0.02 0.02
0.01 0.01 0.01 0.01 0.01 0.01 0.01 0.00 0.01 0.01 0.00 0.00 0.00 0.00 0.00 0.00 0.00 0.00 0.00 0.00 0.00 0.00 0.00 0.01 0.01 0.03 0.04 0.02 0.02 0.01 0.01 0.01 0.01 0.02 0.01 0.00 0.01 0.01 0.01 0.01 0.01 0.01 0.01 0.01
0.01 0.01 0.01 0.01 0.01 0.01 0.00 0.00 0.00 0.00 0.00 0.00 0.00 0.00 0.00 0.00 0.00 0.00 0.00 0.00 0.00 0.00 0.00 0.01 0.01 0.00 0.01 0.01 0.02 0.01 0.02 0.02 0.01 0.00 0.00 0.00 0.00 0.01 0.01 0.01 0.00 0.00 0.00 0.01
0.01 0.01 0.01 0.01 0.01 0.00 0.00 0.00 0.00 0.00 0.00 0.00 0.00 0.00 0.00 0.00 0.00 0.00 0.00 0.00 0.00 0.00 0.00 0.01 0.01 0.00 0.00 0.01 0.01 0.01 0.01 0.01 0.00 0.00 0.00 0.00 0.00 0.00 0.01 0.01 0.00 0.00 0.00 0.00
0.01 0.01 0.01 0.01 0.01 0.00 0.00 0.00 0.00 0.00 0.00 0.00 0.00 0.00 0.00 0.00 0.00 0.00 0.00 0.00 0.00 0.00 0.00 0.00 0.00 0.00 0.01 0.01 0.01 0.01 0.00 0.00 0.00 0.00 0.00 0.01 0.00 0.00 0.00 0.00 0.00 0.00 0.00 0.00
0.01 0.01 0.01 0.02 0.02 0.00 0.00 0.00 0.00 0.00 0.00 0.00 0.00 0.00 0.00 0.00 0.00 0.00 0.00 0.00 0.00 0.00 0.00 0.00 0.00 0.01 0.01 0.01 0.01 0.00 0.00 0.00 0.00 0.00 0.00 0.01 0.00 0.01 0.01 0.01 0.01 0.01 0.01 0.01
0.01 0.01 0.02 0.02 0.02 0.01 0.00 0.00 0.00 0.00 0.00 0.00 0.00 0.00 0.00 0.00 0.00 0.00 0.00 0.00 0.00 0.00 0.00 0.00 0.00 0.01 0.01 0.01 0.01 0.01 0.00 0.00 0.00 0.00 0.00 0.00 0.01 0.01 0.01 0.01 0.01 0.01 0.01 0.01
0.01 0.01 0.01 0.01 0.02 0.01 0.00 0.00 0.00 0.00 0.00 0.00 0.00 0.00 0.00 0.00 0.00 0.00 0.00 0.00 0.00 0.00 0.00 0.00 0.00 0.00 0.00 0.00 0.01 0.01 0.01 0.00 0.00 0.00 0.00 0.00 0.01 0.01 0.01 0.01 0.01 0.01 0.01 0.01
0.01 0.01 0.01 0.01 0.01 0.01 0.00 0.00 0.00 0.00 0.00 0.00 0.00 0.00 0.00 0.00 0.00 0.00 0.00 0.00 0.00 0.00 0.00 0.00 0.00 0.00 0.00 0.00 0.00 0.00 0.00 0.00 0.00 0.01 0.01 0.01 0.01 0.01 0.01 0.01 0.01 0.01 0.01 0.01
0.00 0.01 0.01 0.01 0.01 0.01 0.00 0.00 0.00 0.00 0.00 0.00 0.00 0.00 0.00 0.00 0.00 0.00 0.00 0.00 0.00 0.00 0.00 0.00 0.00 0.00 0.00 0.00 0.00 0.00 0.00 0.00 0.01 0.01 0.01 0.01 0.01 0.01 0.01 0.01 0.01 0.01 0.01 0.01
0.00 0.00 0.00 0.01 0.01 0.00 0.00 0.00 0.00 0.00 0.00 0.00 0.00 0.00 0.00 0.00 0.00 0.00 0.00 0.00 0.00 0.00 0.00 0.00 0.00 0.00 0.00 0.00 0.00 0.00 0.00 0.01 0.01 0.01 0.01 0.02 0.02 0.02 0.01 0.01 0.01 0.01 0.01 0.01
0.00 0.00 0.00 0.00 0.00 0.00 0.00 0.00 0.00 0.01 0.00 0.00 0.00 0.00 0.00 0.00 0.00 0.00 0.00 0.00 0.00 0.00 0.00 0.00 0.00 0.00 0.00 0.00 0.00 0.00 0.00 0.01 0.01 0.01 0.01 0.01 0.01 0.02 0.01 0.01 0.01 0.01 0.02 0.02
0.01 0.00 0.00 0.00 0.00 0.00 0.00 0.00 0.01 0.00 0.00 0.00 0.00 0.00 0.00 0.00 0.00 0.00 0.00 0.00 0.00 0.00 0.00 0.00 0.00 0.00 0.00 0.00 0.00 0.00 0.01 0.01 0.01 0.01 0.01 0.01 0.01 0.02 0.02 0.01 0.01 0.01 0.01 0.02
0.00 0.00 0.00 0.00 0.00 0.00 0.00 0.00 0.00 0.00 0.00 0.00 0.00 0.00 0.00 0.00 0.00 0.00 0.00 0.00 0.00 0.00 0.00 0.00 0.00 0.00 0.00 0.00 0.00 0.01 0.01 0.01 0.01 0.01 0.01 0.01 0.01 0.01 0.01 0.01 0.01 0.01 0.02 0.02
MSLP
1016.78 1017.47 1018.09 1018.61 1019.05 1019.42 1019.76 1020.07 1020.37 1020.66 1020.92 1021.15 1021.30 1021.39 1021.39 1021.32 1021.20 1021.06 1020.93 1020.83 1020.78 1020.77 1020.79 1020.84 1020.87 1020.89 1020.88 1020.82 1020.74 1020.64 1020.54 1020.47 1020.43 1020.44 1020.49 1020.59 1020.71 1020.84 1020.96 1021.05 1021.11 1021.13 1021.13 1021.12
1017.33 1017.89 1018.35 1018.72 1019.01 1019.27 1019.53 1019.81 1020.11 1020.42 1020.73 1020.98 1021.15 1021.24 1021.22 1021.12 1020.98 1020.82 1020.69 1020.62 1020.61 1020.66 1020.77 1020.88 1020.99 1021.05 1021.06 1021.01 1020.92 1020.81 1020.69 1020.61 1020.58 1020.60 1020.68 1020.79 1020.93 1021.06 1021.17 1021.24 1021.27 1021.26 1021.24 1021.21
1017.84 1018.26 1018.58 1018.80 1018.97 1019.14 1019.34 1019.59 1019.89 1020.22 1020.53 1020.79 1020.96 1021.01 1020.95 1020.81 1020.62 1020.45 1020.32 1020.28 1020.33 1020.46 1020.65 1020.85 1021.02 1021.13 1021.17 1021.13 1021.04 1020.91 1020.79 1020.71 1020.69 1020.72 1020.82 1020.95 1021.09 1021.22 1021.31 1021.36 1021.36 1021.33 1021.29 1021.25
1018.27 1018.58 1018.77 1018.89 1018.98 1019.09 1019.26 1019.50 1019.81 1020.14 1020.44 1020.67 1020.79 1020.78 1020.65 1020.44 1020.20 1019.99 1019.86 1019.84 1019.95 1020.16 1020.42 1020.71 1020.95 1021.11 1021.19 1021.17 1021.08 1020.95 1020.84 1020.76 1020.75 1020.81 1020.92 1021.06 1021.21 1021.34 1021.41 1021.44 1021.42 1021.36 1021.30 1021.24
1018.59 1018.81 1018.93 1018.99 1019.04 1019.14 1019.32 1019.58 1019.90 1020.23 1020.51 1020.69 1020.73 1020.62 1020.39 1020.08 1019.76 1019.49 1019.34 1019.35 1019.49 1019.77 1020.11 1020.47 1020.78 1021.00 1021.11 1021.11 1021.04 1020.92 1020.82 1020.76 1020.77 1020.84 1020.97 1021.13 1021.28 1021.40 1021.46 1021.46 1021.42 1021.34 1021.26 1021.20
1018.78 1018.94 1019.02 1019.08 1019.15 1019.29 1019.51 1019.81 1020.16 1020.49 1020.73 1020.84 1020.79 1020.56 1020.20 1019.77 1019.35 1019.02 1018.84 1018.84 1019.02 1019.35 1019.75 1020.17 1020.54 1020.81 1020.95 1020.98 1020.93 1020.84 1020.75 1020.71 1020.73 1020.83 1020.97 1021.14 1021.29 1021.40 1021.44 1021.42 1021.35 1021.25 1021.15 1021.08
1018.79 1018.94 1019.03 1019.13 1019.26 1019.48 1019.78 1020.15 1020.53 1020.85 1021.06 1021.09 1020.93 1020.58 1020.09 1019.54 1019.02 1018.62 1018.40 1018.39 1018.58 1018.94 1019.39 1019.86 1020.27 1020.58 1020.76 1020.81 1020.78 1020.70 1020.63 1020.60 1020.64 1020.75 1020.90 1021.07 1021.22 1021.31 1021.34 1021.29 1021.20 1021.08 1020.96 1020.88
1018.63 1018.78 1018.92 1019.09 1019.32 1019.64 1020.03 1020.47 1020.89 1021.22 1021.39 1021.35 1021.09 1020.62 1020.02 1019.36 1018.76 1018.29 1018.03 1018.01 1018.21 1018.59 1019.07 1019.57 1020.01 1020.35 1020.55 1020.62 1020.60 1020.53 1020.47 1020.45 1020.50 1020.60 1020.75 1020.91 1021.04 1021.12 1021.13 1021.07 1020.96 1020.82 1020.69 1020.60
1018.30 1018.48 1018.69 1018.94 1019.28 1019.70 1020.19 1020.70 1021.15 1021.47 1021.60 1021.50 1021.15 1020.60 1019.91 1019.18 1018.52 1018.01 1017.74 1017.71 1017.92 1018.31 1018.80 1019.32 1019.78 1020.12 1020.33 1020.41 1020.40 1020.33 1020.27 1020.25 1020.29 1020.38 1020.52 1020.66 1020.78 1020.84 1020.83 1020.76 1020.64 1020.49 1020.36 1020.27
1017.84 1018.07 1018.35 1018.69 1019.13 1019.64 1020.19 1020.74 1021.21 1021.52 1021.61 1021.45 1021.04 1020.43 1019.70 1018.93 1018.25 1017.75 1017.47 1017.45 1017.67 1018.07 1018.57 1019.09 1019.54 1019.89 1020.10 1020.18 1020.17 1020.10 1020.04 1020.01 1020.03 1020.10 1020.21 1020.33 1020.43 1020.48 1020.46 1020.38 1020.27 1020.14 1020.02 1019.93
1017.33 1017.61 1017.95 1018.37 1018.87 1019.44 1020.03 1020.58 1021.02 1021.29 1021.34 1021.13 1020.69 1020.06 1019.32 1018.57 1017.91 1017.44 1017.19 1017.19 1017.42 1017.83 1018.32 1018.83 1019.28 1019.62 1019.82 1019.91 1019.89 1019.83 1019.76 1019.72 1019.73 1019.78 1019.87 1019.96 1020.04 1020.08 1020.06 1020.00 1019.91 1019.81 1019.72 1019.66
1016.85 1017.18 1017.58 1018.04 1018.58 1019.15 1019.72 1020.23 1020.62 1020.82 1020.81 1020.56 1020.09 1019.46 1018.75 1018.05 1017.45 1017.03 1016.84 1016.87 1017.12 1017.52 1018.00 1018.49 1018.93 1019.25 1019.46 1019.54 1019.55 1019.49 1019.43 1019.40 1019.40 1019.44 1019.51 1019.60 1019.67 1019.71 1019.71 1019.67 1019.62 1019.56 1019.52 1019.51
1016.47 1016.85 1017.28 1017.76 1018.29 1018.82 1019.33 1019.75 1020.04 1020.16 1020.06 1019.77 1019.29 1018.68 1018.02 1017.39 1016.87 1016.52 1016.38 1016.45 1016.70 1017.09 1017.56 1018.02 1018.43 1018.75 1018.96 1019.06 1019.09 1019.07 1019.05 1019.03 1019.05 1019.11 1019.18 1019.27 1019.34 1019.40 1019.43 1019.45 1019.45 1019.45 1019.47 1019.52
1016.22 1016.63 1017.08 1017.56 1018.04 1018.50 1018.90 1019.20 1019.36 1019.36 1019.18 1018.83 1018.34 1017.76 1017.16 1016.61 1016.17 1015.89 1015.80 1015.90 1016.15 1016.52 1016.95 1017.37 1017.76 1018.07 1018.29 1018.43 1018.51 1018.55 1018.59 1018.63 1018.70 1018.79 1018.89 1019.00 1019.10 1019.20 1019.27 1019.34 1019.41 1019.48 1019.57 1019.68
1016.09 1016.53 1016.97 1017.41 1017.83 1018.18 1018.45 1018.61 1018.63 1018.50 1018.22 1017.81 1017.31 1016.76 1016.22 1015.75 1015.39 1015.18 1015.13 1015.23 1015.47 1015.79 1016.17 1016.55 1016.90 1017.20 1017.45 1017.64 1017.79 1017.92 1018.05 1018.18 1018.32 1018.48 1018.64 1018.80 1018.95 1019.09 1019.22 1019.35 1019.49 1019.63 1019.80 1019.97
1016.02 1016.46 1016.89 1017.28 1017.61 1017.85 1017.98 1017.98 1017.86 1017.60 1017.23 1016.77 1016.27 1015.75 1015.27 1014.87 1014.57 1014.41 1014.38 1014.47 1014.67 1014.94 1015.25 1015.57 1015.89 1016.18 1016.45 1016.70 1016.95 1017.18 1017.42 1017.67 1017.92 1018.17 1018.41 1018.63 1018.85 1019.05 1019.24 1019.44 1019.64 1019.86 1020.09 1020.32
1015.91 1016.34 1016.74 1017.07 1017.30 1017.43 1017.43 1017.29 1017.03 1016.67 1016.23 1015.73 1015.23 1014.75 1014.32 1013.99 1013.75 1013.62 1013.60 1013.67 1013.81 1014.01 1014.24 1014.50 1014.78 1015.06 1015.36 1015.67 1016.00 1016.35 1016.72 1017.09 1017.46 1017.82 1018.16 1018.48 1018.76 1019.03 1019.29 1019.55 1019.81 1020.09 1020.37 1020.65
1015.70 1016.09 1016.43 1016.69 1016.83 1016.85 1016.73 1016.49 1016.13 1015.69 1015.20 1014.69 1014.21 1013.77 1013.40 1013.13 1012.94 1012.84 1012.81 1012.85 1012.94 1013.06 1013.22 1013.41 1013.64 1013.90 1014.22 1014.58 1015.00 1015.46 1015.95 1016.45 1016.95 1017.42 1017.87 1018.27 1018.64 1018.98 1019.30 1019.62 1019.94 1020.27 1020.60 1020.91
1015.33 1015.65 1015.92 1016.09 1016.15 1016.07 1015.87 1015.54 1015.12 1014.64 1014.13 1013.64 1013.19 1012.81 1012.51 1012.30 1012.16 1012.09 1012.06 1012.07 1012.11 1012.16 1012.25 1012.37 1012.55 1012.80 1013.12 1013.52 1014.00 1014.55 1015.15 1015.76 1016.37 1016.96 1017.50 1018.00 1018.45 1018.86 1019.25 1019.62 1019.98 1020.35 1020.71 1021.06
1014.81 1015.03 1015.20 1015.28 1015.25 1015.10 1014.83 1014.45 1014.00 1013.51 1013.02 1012.56 1012.17 1011.86 1011.63 1011.48 1011.40 1011.36 1011.35 1011.34 1011.35 1011.35 1011.38 1011.45 1011.58 1011.80 1012.12 1012.54 1013.07 1013.68 1014.35 1015.05 1015.76 1016.43 1017.07 1017.65 1018.17 1018.65 1019.09 1019.51 1019.92 1020.33 1020.72 1021.08
1014.20 1014.30 1014.35 1014.32 1014.21 1013.99 1013.67 1013.27 1012.81 1012.34 1011.89 1011.48 1011.16 1010.92 1010.77 1010.69 1010.67 1010.67 1010.68 1010.68 1010.67 1010.65 1010.64 1010.67 1010.77 1010.96 1011.27 1011.69 1012.23 1012.88 1013.59 1014.35 1015.12 1015.86 1016.57 1017.21 1017.80 1018.34 1018.84 1019.31 1019.77 1020.20 1020.62 1021.01
1013.60 1013.54 1013.45 1013.32 1013.12 1012.84 1012.49 1012.08 1011.64 1011.20 1010.79 1010.44 1010.18 1010.01 1009.93 1009.91 1009.95 1010.00 1010.04 1010.06 1010.06 1010.04 1010.02 1010.03 1010.11 1010.29 1010.57 1010.99 1011.53 1012.17 1012.91 1013.69 1014.49 1015.28 1016.03 1016.73 1017.38 1017.97 1018.52 1019.04 1019.53 1020.00 1020.45 1020.87
1013.07 1012.85 1012.63 1012.39 1012.11 1011.78 1011.41 1010.99 1010.57 1010.16 1009.79 1009.50 1009.29 1009.17 1009.13 1009.17 1009.25 1009.34 1009.42 1009.47 1009.50 1009.50 1009.49 1009.51 1009.58 1009.75 1010.02 1010.42 1010.94 1011.58 1012.30 1013.08 1013.89 1014.70 1015.48 1016.22 1016.91 1017.56 1018.15 1018.72 1019.25 1019.76 1020.23 1020.67
1012.68 1012.31 1011.96 1011.62 1011.27 1010.89 1010.50 1010.09 1009.69 1009.30 1008.96 1008.70 1008.51 1008.42 1008.41 1008.47 1008.57 1008.69 1008.80 1008.89 1008.95 1008.98 1009.00 1009.04 1009.13 1009.30 1009.57 1009.95 1010.45 1011.06 1011.76 1012.53 1013.34 1014.15 1014.95 1015.71 1016.44 1017.12 1017.76 1018.37 1018.94 1019.48 1019.98 1020.45
1012.42 1011.92 1011.47 1011.04 1010.63 1010.24 1009.83 1009.43 1009.04 1008.67 1008.34 1008.08 1007.90 1007.80 1007.78 1007.83 1007.93 1008.05 1008.18 1008.29 1008.38 1008.44 1008.51 1008.58 1008.69 1008.87 1009.15 1009.52 1010.00 1010.59 1011.28 1012.02 1012.82 1013.63 1014.43 1015.22 1015.97 1016.69 1017.37 1018.01 1018.61 1019.18 1019.70 1020.19
1012.21 1011.63 1011.10 1010.63 1010.20 1009.79 1009.39 1009.01 1008.62 1008.26 1007.93 1007.66 1007.45 1007.31 1007.25 1007.26 1007.32 1007.42 1007.53 1007.65 1007.76 1007.85 1007.95 1008.06 1008.21 1008.41 1008.70 1009.07 1009.55 1010.13 1010.79 1011.53 1012.31 1013.12 1013.93 1014.73 1015.51 1016.25 1016.95 1017.62 1018.25 1018.84 1019.38 1019.87
Thickness
5751 5745 5737 5739 5741 5738 5734 5729 5727 5731 5738 5731 5729 5732 5737 5740 5737 5736 5737 5737 5736 5735 5736 5735 5733 5729 5727 5725 5723 5720 5717 5714 5711 5708 5707 5705 5704 5703 5702 5702 5701 5701 5701 5701
5741 5736 5743 5744 5740 5735 5732 5727 5728 5732 5736 5732 5730 5732 5740 5741 5738 5739 5739 5739 5738 5736 5735 5733 5731 5728 5726 5723 5721 5719 5716 5713 5711 5707 5706 5704 5702 5702 5701 5699 5698 5698 5698 5698
5735 5740 5744 5739 5734 5730 5730 5728 5727 5726 5731 5734 5729 5730 5737 5741 5742 5740 5740 5740 5741 5737 5735 5733 5730 5728 5724 5722 5719 5716 5714 5711 5708 5706 5704 5702 5700 5699 5699 5697 5696 5695 5695 5694
5737 5742 5738 5734 5732 5732 5725 5734 5730 5725 5722 5724 5725 5717 5733 5739 5737 5737 5738 5739 5739 5737 5736 5733 5729 5727 5724 5721 5719 5717 5713 5710 5707 5704 5702 5700 5698 5696 5696 5696 5695 5693 5692 5691
5732 5736 5733 5730 5733 5734 5732 5733 5730 5726 5724 5722 5726 5720 5730 5738 5733 5736 5739 5738 5738 5737 5735 5732 5729 5726 5724 5721 5717 5714 5711 5708 5705 5703 5700 5698 5697 5696 5696 5694 5693 5692 5690 5689
5735 5740 5737 5735 5737 5736 5733 5729 5727 5726 5724 5712 5722 5717 5721 5734 5734 5736 5739 5739 5738 5736 5734 5731 5729 5725 5722 5719 5715 5712 5708 5705 5702 5700 5699 5697 5695 5694 5692 5691 5690 5689 5688 5687
5725 5732 5736 5737 5728 5730 5729 5720 5710 5708 5707 5712 5722 5716 5723 5737 5739 5737 5737 5737 5738 5736 5733 5729 5726 5722 5719 5715 5712 5709 5706 5704 5701 5699 5698 5697 5695 5693 5692 5690 5689 5687 5687 5685
5713 5716 5730 5732 5729 5725 5726 5722 5705 5696 5701 5712 5718 5715 5730 5738 5739 5738 5738 5737 5735 5733 5731 5728 5725 5721 5718 5714 5711 5708 5705 5702 5700 5698 5698 5697 5694 5692 5691 5689 5688 5687 5686 5685
5715 5714 5728 5730 5732 5730 5721 5720 5725 5713 5710 5704 5715 5722 5731 5736 5734 5734 5733 5732 5730 5729 5727 5726 5723 5720 5717 5714 5710 5708 5704 5701 5699 5698 5696 5694 5693 5690 5688 5687 5687 5685 5685 5683
5721 5710 5720 5723 5725 5723 5726 5724 5716 5707 5695 5695 5706 5713 5719 5725 5727 5729 5729 5728 5727 5727 5726 5724 5721 5718 5716 5714 5710 5707 5704 5701 5699 5697 5695 5691 5690 5688 5687 5685 5684 5683 5682 5680
5720 5710 5711 5715 5713 5716 5714 5712 5712 5711 5707 5696 5694 5710 5730 5727 5727 5726 5726 5727 5726 5724 5723 5721 5719 5717 5715 5712 5708 5705 5702 5700 5697 5695 5693 5689 5687 5686 5684 5683 5681 5680 5678 5677
5715 5711 5706 5711 5718 5719 5717 5716 5712 5701 5701 5703 5699 5709 5733 5729 5728 5726 5725 5725 5725 5723 5722 5719 5717 5715 5712 5709 5707 5704 5701 5698 5695 5693 5690 5687 5685 5683 5681 5679 5678 5677 5675 5674
5708 5703 5695 5698 5703 5706 5707 5710 5710 5710 5707 5702 5696 5708 5729 5728 5724 5723 5722 5722 5722 5719 5718 5717 5714 5711 5708 5706 5704 5702 5699 5696 5693 5689 5687 5684 5682 5680 5678 5676 5675 5674 5673 5671
5706 5703 5697 5690 5699 5704 5701 5701 5702 5701 5698 5701 5705 5710 5720 5720 5719 5719 5719 5720 5718 5716 5715 5713 5710 5708 5706 5704 5702 5699 5696 5693 5690 5686 5683 5681 5680 5677 5675 5674 5672 5670 5669 5668
5702 5698 5701 5701 5703 5701 5700 5699 5699 5698 5703 5702 5709 5710 5717 5719 5718 5718 5717 5716 5713 5711 5710 5709 5707 5706 5703 5701 5698 5696 5693 5690 5687 5683 5681 5679 5677 5675 5672 5670 5668 5667 5665 5663
5696 5693 5694 5693 5696 5695 5694 5698 5699 5698 5702 5704 5705 5708 5722 5721 5719 5716 5715 5712 5708 5707 5706 5706 5705 5703 5701 5699 5696 5693 5690 5687 5684 5681 5678 5675 5673 5670 5668 5666 5665 5663 5660 5660
5688 5687 5683 5686 5691 5688 5688 5702 5701 5701 5706 5705 5702 5712 5717 5712 5711 5711 5711 5708 5706 5705 5703 5703 5703 5701 5699 5697 5695 5690 5688 5685 5681 5678 5675 5672 5669 5666 5664 5662 5660 5658 5656 5655
5684 5682 5680 5680 5680 5672 5702 5713 5707 5703 5706 5709 5709 5711 5710 5710 5709 5709 5709 5706 5703 5702 5700 5700 5700 5698 5696 5694 5691 5688 5684 5681 5677 5674 5671 5668 5664 5662 5659 5658 5656 5654 5653 5651
5683 5677 5673 5673 5672 5682 5698 5703 5701 5696 5700 5708 5706 5705 5705 5704 5703 5706 5706 5703 5701 5699 5698 5697 5696 5694 5692 5689 5686 5683 5680 5676 5672 5669 5667 5664 5661 5658 5655 5653 5651 5650 5649 5647
5671 5673 5669 5666 5663 5669 5691 5701 5702 5695 5692 5705 5703 5699 5697 5696 5694 5700 5700 5697 5695 5694 5693 5691 5690 5688 5686 5683 5681 5677 5674 5671 5667 5665 5663 5660 5657 5654 5651 5649 5648 5646 5644 5642
5661 5660 5659 5661 5661 5676 5691 5693 5691 5678 5688 5698 5698 5695 5693 5691 5694 5695 5694 5691 5689 5688 5686 5685 5683 5681 5679 5677 5674 5671 5668 5665 5663 5660 5657 5654 5651 5649 5646 5644 5643 5641 5639 5637
5662 5659 5658 5659 5656 5666 5683 5681 5680 5685 5692 5691 5690 5690 5687 5687 5687 5686 5685 5684 5682 5681 5679 5678 5676 5674 5672 5670 5668 5665 5661 5659 5656 5653 5650 5648 5645 5643 5641 5638 5636 5635 5633 5630
5660 5664 5664 5663 5667 5675 5677 5677 5680 5681 5682 5683 5683 5682 5680 5678 5678 5678 5678 5677 5676 5675 5673 5671 5669 5667 5666 5664 5661 5658 5656 5653 5650 5647 5644 5642 5640 5637 5634 5632 5630 5628 5626 5624
5653 5654 5654 5656 5664 5666 5667 5669 5670 5672 5673 5675 5676 5675 5673 5672 5672 5671 5671 5670 5669 5669 5667 5665 5663 5661 5659 5658 5655 5653 5650 5647 5644 5641 5639 5637 5634 5631 5628 5625 5623 5621 5619 5617
5642 5640 5644 5649 5657 5658 5660 5662 5663 5664 5665 5666 5667 5667 5666 5665 5665 5664 5663 5663 5663 5661 5660 5659 5657 5655 5653 5651 5649 5646 5644 5641 5638 5636 5633 5631 5628 5625 5622 5619 5616 5614 5612 5610
5633 5633 5635 5643 5651 5651 5655 5658 5658 5656 5657 5658 5658 5658 5659 5658 5657 5657 5657 5656 5656 5654 5653 5651 5649 5647 5647 5645 5642 5640 5637 5634 5632 5630 5627 5624 5621 5617 5615 5612 5609 5604 5602 5599